COSMOS 482 DESCENT CRAFT (6073 NORAD) Tracking and Keplerian Element Data

This shows tracking and keplerian element data for the satellite.

Feedback or suggestion? Click here.




ElementValue
Catalog6073
NameCOSMOS 482 DESCENT CRAFT
Epoch Orbit73640
Epoch Day35.18901229
Epoch Year2025
RAAN4.6569
Inclination51.9777
Eccentricity0.0400169
Argument of Perigee112.8108
Mean Anonmoly251.5665
Mean Motion15.3967318
Decay Rate0.00219423
L11 06073U 72023E 25035.18901229 .00219423 10148-4 17597-3 0 9998
L22 06073 51.9777 4.6569 0400169 112.8108 251.5665 15.39673180736408



Live tracking and technical data element details for COSMOS 482 DESCENT CRAFT (NORAD 6073). COSMOS 482 DESCENT CRAFT can be tracked NOW for your location showing map with azimuth and elevation plus other details from your city location.







IsCatalogInMostPopularTable: catalog: 6073, numindb: 1006
Update: records affected: 1



GetName: 6073 COSMOS 482 DESCENT CRAFT

Hit Count: updated at: Wed, 14 May 2025 00:54:48 GMT